When you browse on this site, cookies collect data to enhance your experience and personalize the content and advertising you see.
Visit our Privacy Policy to learn more. By continuing to use the site, you agree to this use of cookies and data.
  • In Lithuania
  • List of Countries
  • For 7 days
  • Water Temperature
  • Weather Map
  • Weather Widgets
  • user-avatar
    Login

    Hourly Weather Lewis

    Today, 29 February, Saturday

    Time Temperature Precipitation Wind Pressure Humidity
    00:00 +2°C° 0 mm 7 mps 721 mmHg 89%
    01:00 +1°C° 0.7 mm 8 mps 720 mmHg 90%
    02:00 +1°C° 0.7 mm 9 mps 718 mmHg 91%
    03:00 +1°C° 0.7 mm 10 mps 716 mmHg 92%
    04:00 +1°C° 0.9 mm 10 mps 716 mmHg 89%
    05:00 +1°C° 0.9 mm 9 mps 715 mmHg 85%
    06:00 +2°C° 0.9 mm 9 mps 715 mmHg 82%
    07:00 +1°C° 0 mm 8 mps 714 mmHg 79%
    08:00 +1°C° 0 mm 8 mps 714 mmHg 75%
    09:00 +2°C° 0 mm 7 mps 714 mmHg 72%
    10:00 +1°C° 0 mm 8 mps 713 mmHg 69%
    11:00 +1°C° 0 mm 8 mps 713 mmHg 66%
    12:00 +2°C° 0 mm 8 mps 712 mmHg 63%
    13:00 +1°C° 0 mm 9 mps 711 mmHg 64%
    14:00 +1°C° 0 mm 9 mps 710 mmHg 66%
    15:00 +1°C° 0 mm 10 mps 709 mmHg 68%
    16:00 0°C° 0 mm 9 mps 708 mmHg 69%
    17:00 0°C° 0 mm 9 mps 708 mmHg 70%
    18:00 0°C° 0 mm 8 mps 707 mmHg 71%
    19:00 0°C° 0 mm 7 mps 707 mmHg 75%
    20:00 -1°C° 0 mm 6 mps 707 mmHg 78%
    21:00 0°C° 0 mm 5 mps 707 mmHg 82%
    22:00 0°C° 0.2 mm 4 mps 707 mmHg 86%
    23:00 0°C° 0.2 mm 3 mps 708 mmHg 89%

    Tomorrow, 1 March, Sunday

    Time Temperature Precipitation Wind Pressure Humidity
    00:00 +2°C° 0.2 mm 1 mps 708 mmHg 93%
    01:00 +1°C° 0 mm 2 mps 708 mmHg 90%
    02:00 0°C° 0 mm 3 mps 709 mmHg 86%
    03:00 -1°C° 0 mm 4 mps 709 mmHg 83%
    04:00 0°C° 0 mm 4 mps 709 mmHg 80%
    05:00 +1°C° 0 mm 4 mps 710 mmHg 76%
    06:00 +1°C° 0 mm 4 mps 710 mmHg 73%
    07:00 +1°C° 0 mm 4 mps 710 mmHg 75%
    08:00 +2°C° 0 mm 3 mps 710 mmHg 77%
    09:00 +2°C° 0 mm 3 mps 711 mmHg 79%
    10:00 +3°C° 0.2 mm 3 mps 711 mmHg 80%
    11:00 +4°C° 0.2 mm 2 mps 711 mmHg 81%
    12:00 +4°C° 0.2 mm 2 mps 711 mmHg 82%
    13:00 +3°C° 1.1 mm 3 mps 711 mmHg 87%
    14:00 +1°C° 1.1 mm 4 mps 711 mmHg 91%
    15:00 0°C° 1.1 mm 5 mps 711 mmHg 95%
    16:00 -1°C° 0.5 mm 6 mps 712 mmHg 91%
    17:00 +1°C° 0.5 mm 6 mps 712 mmHg 86%
    18:00 0°C° 0.5 mm 7 mps 712 mmHg 81%
    19:00 0°C° 0.2 mm 7 mps 713 mmHg 84%
    20:00 +2°C° 0.2 mm 7 mps 714 mmHg 86%
    21:00 +2°C° 0.2 mm 7 mps 715 mmHg 88%
    22:00 +2°C° 0.1 mm 6 mps 715 mmHg 86%
    23:00 +1°C° 0.1 mm 6 mps 715 mmHg 84%

    Day after tomorrow, 2 March, Monday

    Time Temperature Precipitation Wind Pressure Humidity
    00:00 +1°C° 0.1 mm 6 mps 716 mmHg 82%
    01:00 0°C° 0.1 mm 7 mps 716 mmHg 82%
    02:00 0°C° 0.1 mm 8 mps 716 mmHg 83%
    03:00 0°C° 0.1 mm 8 mps 716 mmHg 83%
    04:00 0°C° 0.1 mm 8 mps 716 mmHg 84%
    05:00 0°C° 0.1 mm 8 mps 716 mmHg 84%
    06:00 +2°C° 0.1 mm 7 mps 717 mmHg 85%
    07:00 +1°C° 0.1 mm 8 mps 717 mmHg 83%
    08:00 +1°C° 0.1 mm 8 mps 717 mmHg 82%
    09:00 +2°C° 0.1 mm 8 mps 717 mmHg 81%
    10:00 +3°C° 0.2 mm 7 mps 718 mmHg 79%
    11:00 +4°C° 0.2 mm 7 mps 718 mmHg 77%
    12:00 +5°C° 0.2 mm 7 mps 718 mmHg 75%
    13:00 +5°C° 0.2 mm 7 mps 719 mmHg 77%
    14:00 +4°C° 0.2 mm 7 mps 719 mmHg 78%
    15:00 +4°C° 0.2 mm 7 mps 720 mmHg 80%
    16:00 +4°C° 0.2 mm 7 mps 720 mmHg 81%
    17:00 +3°C° 0.2 mm 7 mps 721 mmHg 82%
    18:00 +3°C° 0.2 mm 7 mps 722 mmHg 83%
    19:00 +3°C° 0.3 mm 6 mps 722 mmHg 85%
    20:00 +3°C° 0.3 mm 6 mps 723 mmHg 87%
    21:00 +3°C° 0.3 mm 5 mps 724 mmHg 89%
    22:00 +3°C° 0 mm 4 mps 725 mmHg 90%
    23:00 +3°C° 0 mm 4 mps 726 mmHg 90%

    3 March, Tuesday

    Time Temperature Precipitation Wind Pressure Humidity
    00:00 +3°C° 0 mm 3 mps 726 mmHg 91%
    01:00 +3°C° 0.1 mm 3 mps 727 mmHg 91%
    02:00 +3°C° 0.1 mm 2 mps 728 mmHg 91%
    03:00 +3°C° 0.1 mm 2 mps 728 mmHg 91%
    04:00 +3°C° 0.2 mm 2 mps 729 mmHg 90%
    05:00 +2°C° 0.2 mm 3 mps 730 mmHg 90%
    06:00 +1°C° 0.2 mm 4 mps 730 mmHg 90%
    07:00 +3°C° 0.2 mm 4 mps 731 mmHg 88%
    08:00 +4°C° 0.2 mm 4 mps 731 mmHg 86%
    09:00 +5°C° 0.2 mm 5 mps 732 mmHg 85%
    10:00 +5°C° 0.1 mm 5 mps 733 mmHg 81%
    11:00 +6°C° 0.1 mm 5 mps 733 mmHg 78%
    12:00 +7°C° 0.1 mm 5 mps 734 mmHg 75%
    13:00 +5°C° 0.2 mm 6 mps 734 mmHg 76%
    14:00 +5°C° 0.2 mm 7 mps 735 mmHg 77%
    15:00 +5°C° 0.2 mm 8 mps 736 mmHg 78%
    16:00 +3°C° 0.2 mm 9 mps 736 mmHg 79%
    17:00 +3°C° 0.2 mm 9 mps 737 mmHg 80%
    18:00 +3°C° 0.2 mm 9 mps 737 mmHg 81%
    19:00 +2°C° 0.1 mm 9 mps 738 mmHg 81%
    20:00 +2°C° 0.1 mm 9 mps 738 mmHg 81%
    21:00 +2°C° 0.1 mm 9 mps 739 mmHg 81%
    22:00 +2°C° 0.2 mm 9 mps 739 mmHg 82%
    23:00 +2°C° 0.2 mm 10 mps 740 mmHg 83%

    4 March, Wednesday

    Time Temperature Precipitation Wind Pressure Humidity
    00:00 +2°C° 0.2 mm 10 mps 740 mmHg 84%
    01:00 +1°C° 0.1 mm 9 mps 741 mmHg 81%
    02:00 +1°C° 0.1 mm 9 mps 741 mmHg 79%
    03:00 +1°C° 0.1 mm 8 mps 741 mmHg 77%
    04:00 0°C° 0 mm 8 mps 741 mmHg 76%
    05:00 0°C° 0 mm 7 mps 742 mmHg 75%
    06:00 +1°C° 0 mm 6 mps 742 mmHg 75%
    07:00 +1°C° 0 mm 5 mps 742 mmHg 74%
    08:00 +1°C° 0 mm 4 mps 742 mmHg 72%
    09:00 +1°C° 0 mm 4 mps 743 mmHg 71%
    10:00 +3°C° 0 mm 4 mps 743 mmHg 68%
    11:00 +4°C° 0 mm 4 mps 743 mmHg 65%
    12:00 +4°C° 0 mm 4 mps 743 mmHg 62%
    13:00 +4°C° 0 mm 4 mps 743 mmHg 62%
    14:00 +4°C° 0 mm 4 mps 743 mmHg 62%
    15:00 +3°C° 0 mm 5 mps 743 mmHg 62%
    16:00 +3°C° 0 mm 5 mps 743 mmHg 67%
    17:00 +2°C° 0 mm 5 mps 742 mmHg 71%
    18:00 +1°C° 0 mm 5 mps 742 mmHg 75%
    19:00 +1°C° 0.1 mm 4 mps 742 mmHg 77%
    20:00 +1°C° 0.1 mm 4 mps 742 mmHg 79%
    21:00 0°C° 0.1 mm 4 mps 742 mmHg 81%
    22:00 0°C° 0.2 mm 4 mps 742 mmHg 82%
    23:00 0°C° 0.2 mm 4 mps 742 mmHg 83%

    5 March, Thursday

    Time Temperature Precipitation Wind Pressure Humidity
    00:00 +1°C° 0.2 mm 3 mps 742 mmHg 84%
    01:00 +1°C° 0 mm 3 mps 742 mmHg 83%
    02:00 +1°C° 0 mm 3 mps 741 mmHg 82%
    03:00 0°C° 0 mm 3 mps 741 mmHg 81%
    04:00 0°C° 0 mm 3 mps 741 mmHg 80%
    05:00 0°C° 0 mm 3 mps 741 mmHg 78%
    06:00 0°C° 0 mm 3 mps 740 mmHg 77%
    07:00 0°C° 0 mm 4 mps 740 mmHg 75%
    08:00 0°C° 0 mm 4 mps 740 mmHg 74%
    09:00 +1°C° 0 mm 5 mps 740 mmHg 72%
    10:00 +1°C° 0.1 mm 5 mps 740 mmHg 72%
    11:00 +2°C° 0.1 mm 6 mps 740 mmHg 71%
    12:00 +3°C° 0.1 mm 6 mps 740 mmHg 70%
    13:00 +3°C° 0.1 mm 6 mps 739 mmHg 70%
    14:00 +3°C° 0.1 mm 6 mps 739 mmHg 69%
    15:00 +3°C° 0.1 mm 6 mps 738 mmHg 69%
    16:00 +2°C° 0.1 mm 6 mps 738 mmHg 72%
    17:00 +2°C° 0.1 mm 6 mps 738 mmHg 75%
    18:00 +1°C° 0.1 mm 6 mps 737 mmHg 78%
    19:00 +1°C° 0.1 mm 6 mps 737 mmHg 80%
    20:00 -1°C° 0.1 mm 6 mps 737 mmHg 83%
    21:00 -1°C° 0.1 mm 6 mps 737 mmHg 85%
    22:00 -1°C° 0 mm 6 mps 736 mmHg 85%
    23:00 -1°C° 0 mm 7 mps 735 mmHg 85%
    Show more